This is the latest recevied weather packets stored in our database for station/object W6UA-13. If no packets are shown the sender has not sent any weather packets the latest 10 day(s).
| Time | Temp. | Humidity | Pressure | Rain* | Wind** | Luminosity | Snow |
|---|---|---|---|---|---|---|---|
| 1777755886 | 18.33° C | 65% | 1014.8 hPa | 0 mm | - | 626 W/m² | - |
| 1777754986 | 18.33° C | 66% | 1014.8 hPa | 0 mm | - | 446 W/m² | - |
| 1777754086 | 18.33° C | 66% | 1014.8 hPa | 0 mm | - | 652 W/m² | - |
| 1777753186 | 18.33° C | 68% | 1014.9 hPa | 0 mm | - | 631 W/m² | - |
| 1777752286 | 17.22° C | 70% | 1015.2 hPa | 0 mm | - | 714 W/m² | - |
| 1777751386 | 17.22° C | 70% | 1015.3 hPa | 0 mm | - | 489 W/m² | - |
| 1777750486 | 17.22° C | 70% | 1015.4 hPa | 0 mm | - | 503 W/m² | - |
| 1777749586 | 17.22° C | 71% | 1015.3 hPa | 0 mm | - | 524 W/m² | - |
| 1777748686 | 16.11° C | 73% | 1015.4 hPa | 0 mm | - | 468 W/m² | - |
| 1777747786 | 15.56° C | 75% | 1015.7 hPa | 0 mm | - | 374 W/m² | - |
| 1777746886 | 15° C | 77% | 1015.6 hPa | 0 mm | - | 316 W/m² | - |
| 1777745986 | 15° C | 78% | 1015.6 hPa | 0 mm | - | 290 W/m² | - |
| 1777745086 | 14.44° C | 80% | 1015.4 hPa | 0 mm | - | 232 W/m² | - |
| 1777744186 | 13.89° C | 81% | 1015.4 hPa | 0 mm | - | 192 W/m² | - |
| 1777743286 | 13.33° C | 81% | 1015.4 hPa | 0 mm | - | 155 W/m² | - |
| 1777742386 | 13.33° C | 82% | 1015.4 hPa | 0 mm | - | 121 W/m² | - |
| 1777741486 | 13.33° C | 82% | 1015.4 hPa | 0 mm | - | 109 W/m² | - |
| 1777740586 | 13.33° C | 83% | 1015.2 hPa | 0 mm | - | 111 W/m² | - |
| 1777739686 | 13.33° C | 83% | 1014.9 hPa | 0 mm | - | 118 W/m² | - |
| 1777738786 | 13.33° C | 84% | 1014.9 hPa | 0 mm | - | 142 W/m² | - |
| 1777737886 | 12.78° C | 85% | 1014.8 hPa | 0 mm | - | 128 W/m² | - |
| 1777736986 | 12.78° C | 86% | 1014.8 hPa | 0 mm | - | 100 W/m² | - |
| 1777736086 | 12.78° C | 87% | 1014.8 hPa | 0 mm | - | 74 W/m² | - |
| 1777735186 | 12.22° C | 88% | 1014.6 hPa | 0 mm | - | 91 W/m² | - |
| 1777734286 | 12.22° C | 88% | 1014.5 hPa | 0 mm | - | 53 W/m² | - |
* Rain latest hour (hover to see other rain measurements)
** Current wind speed in m/s (hover to see current wind gust speed)